Regional Weather Roundup
Issued by NWS Charleston, SC

Current Version | Previous Version | Graphics & Text | Print | Product List | Glossary Off
Versions: 1 2 3 4 5 6 7 8 9 10 11 12 13 14 15 16 17 18 19 20 21 22 23 24 25 26 27 28 29 30 31 32 33 34 35 36 37 38 39 40 41 42 43 44 45 46 47 48 49 50

000
ASUS42 KCHS 042127
RWRCHS

REGIONAL WEATHER ROUNDUP
NATIONAL WEATHER SERVICE CHARLESTON SC
500 PM EDT SAT JUL 04 2015

NOTE: "FAIR" INDICATES FEW OR NO CLOUDS BELOW 12,000 FEET WITH NO
SIGNIFICANT WEATHER AND/OR OBSTRUCTIONS TO VISIBILITY.

NOT ALL STATIONS ARE QUALITY CONTROLLED BY THE NATIONAL
WEATHER SERVICE. USE DATA WITH CAUTION...ESPECIALLY
DEWPOINT OBSERVATIONS.

SCZ027-030-031-034>040-042>050-042200-
...SOUTHEAST SOUTH CAROLINA...

CITY           SKY/WX    TMP DP  RH WIND       PRES   REMARKS
N CHARLESTON   PTSUNNY   90  70  51 SW8       30.05S HX  95
WATERFRONT PAR   N/A     85  77  76 S10       30.03F HX  95
MOUNT PLEASANT LGT RAIN  88  77  70 S12G17    30.06R HX 100
JOHNS ISLAND   FAIR      86  79  79 S13       30.07R HX  99
PINOPOLIS      NOT AVBL
MONCKS CORNER  FAIR      90  70  51 SW7       30.05S HX  95
SUMMERVILLE    FAIR      90  72  55 S3        30.06S HX  96
BEAUFORT MCAS  MOSUNNY   91  70  49 SW7       30.06R HX  96
BEAUFORT ARPT  FAIR      86  77  74 S8        30.06R HAZE    HX  97
HILTON HEAD IS MOSUNNY   88  79  74 SE6G16    30.08R HX 102
WALTERBORO     PTCLDY    88  68  51 SW7       30.06S HX  91
ALLENDALE      FAIR      88  72  58 SW6       30.04S HX  94

...SOUTHERN MIDLANDS AND PEE DEE...

CITY           SKY/WX    TMP DP  RH WIND       PRES   REMARKS
GEORGETOWN     NOT AVBL
KINGSTREE      NOT AVBL
ORANGEBURG     SUNNY     88  69  53 SW9       30.04S HX  92
BARNWELL       FAIR      90  73  58 SW12      30.05R HX  98
AIKEN          NOT AVBL
MANNING        FAIR      88  64  45 SW10G16   30.03S
COLUMBIA       MOSUNNY   88  67  49 SW14      30.02S HX  91
SUMTER         MOSUNNY   88  70  55 SW12      30.01R HX  93
FLORENCE       MOSUNNY   87  69  54 SW15      30.01F HX  91
MYRTLE BEACH   MOSUNNY   91  66  43 SW9       30.05F HX  94
N MYRTLE BEACH SUNNY     87  75  67 S20       30.02F HX  96

$$

GAZ063-065-086>088-099>101-113>116-118-119-134>141-150-042200-
...SOUTHEAST GEORGIA...

CITY           SKY/WX    TMP DP  RH WIND       PRES   REMARKS
SAVANNAH ARPT  PTSUNNY   92  68  45 W8        30.05F HX  96
HUNTER AAF     TSTM      82  75  78 SE13      30.05R
FORT STEWART   MOSUNNY   90  70  51 NW22G28   30.05R HX  95
STATESBORO     NOT AVBL
SYLVANIA       TSTM      74  73  94 W5G17     30.12R
CLAXTON        FAIR      73  72  94 CALM      30.10F

...CSRA...CENTRAL AND FAR SOUTHEAST GEORGIA...

CITY           SKY/WX    TMP DP  RH WIND       PRES   REMARKS
THOMSON        MOSUNNY   89  71  55 SW7       30.09R HX  95
AUGUSTA-BUSH   SUNNY     88  68  51 SW9       30.03S HX  91
AUGUSTA-DANIEL MOSUNNY   88  68  51 SW12G17   30.05R HX  91
SWAINSBORO     LGT RAIN  77  77 100 SE3       30.08F
VIDALIA        RAIN      79  68  69 SW6       30.10S
EASTMAN        FAIR      77  77 100 CALM      30.12R
HAZLEHURST     FAIR      75  74  97 SW3       30.11R
ALMA           LGT RAIN  73  71  93 W8        30.12R
WAYCROSS       MOSUNNY   80  75  85 N18G25    30.10R THUNDER
JESUP          MOCLDY    90  72  55 NW13G23   30.08R HX  96
BAXLEY         CLOUDY    73  72  94 W5        30.12S
BRUNSWICK      CLOUDY    73  72  94 NE5       30.09F THUNDER
SAINT SIMONS   CLOUDY    75  71  87 SW8G20    30.10R

$$

SCZ027-028-034-036>038-045-046-048>050-GAZ119-141-042200-
...LAKE AND SUPPLEMENTAL COASTAL OBSERVATIONS...

STATION/POSITION TIME  TEMP    WIND        PRES    WAVE   SWELL
                       AIR SEA DIR/SP/G            HT/PER HT/PER/DIR
                 (UTC) (F)     (DEG/KT/KT) (MB)    (FT/S) (FT/S/D)
UPR LAKE MARION  NOT AVBL
WINYAH BAY       2045   89     240/  6     1016.0F
LAKE MURRAY      2000   83     220/ 14/ 16 1015.9F
ACE BASIN NERRS  2000   88     190/  2     1018.0S
FORT PULASKI     2100   84 85  160/  8/ 13 1018.5R
SAPELO ISLAND    2100   75     230/ 32     1019.0R

$$

ANZ835-935-AMZ111-154-330-350-352-354-370-450-454-472-042200-
...C-MAN AND BUOY OBSERVATIONS...

STATION/POSITION TIME  TEMP    WIND        PRES    WAVE   SWELL
                       AIR SEA DIR/SP/G            HT/PER HT/PER/DIR
                 (UTC) (F)     (DEG/KT/KT) (MB)    (FT/S) (FT/S/D)
BUOY 41004       2050   82 82  220/ 14/ 16 1017.9R   3/ 9   2/ 9
BUOY 41008       2050   80 80  180/ 14/ 16 1019.0S   2/ 9   2/110/ 9
FOLLY BEACH CMAN 2100   82     200/ 14/ 16 1018.3R
CAPERS NEARSHORE 2008   82     210/ 16/ 19 1018.2F
FRIPP NEARSHORE  2000   83     180/ 12/ 16 1017.9F


STATION/POSITION TIME  TEMP    WIND        PRES    WAVE   SWELL
                       AIR SEA DIR/SP/G            HT/PER HT/PER/DIR
                 (UTC) (F)     (DEG/KT/KT) (MB)    (FT/S) (FT/S/D)
5E ST. MARYS GA  2021      77                N/A     2/ 9
FRYING PAN BUOY  2050   81 79  200/ 14/ 16 1018.0F   4/ 6   2/130/ 9
BUOY 41025       2050   81 82  230/ 23/ 29 1015.2S   7/ 7   2/170/14
CAPE LOOKOUT NC  2100   83     220/ 13/ 16 1015.9F
BUOY 41002       2050   82 81  230/ 12/ 14 1020.8F   5/ 9   5/140/ 9
BUOY 41010       2020   84 85  160/  6/  8 1020.7F
ST AUGUSTINE FL  2100   74 76   50/  6/  6 1020.1F


$$


USA.gov is the U.S. government's official web portal to all federal, state and local government web resources and services.